Starlink 32957

operational
NORAD ID: 63124 Int'l Des: 2025-039 Owner: SPXS Country: US Constellation: starlink
LEOCIRCULAR

Starlink 32957について

説明を読み込み中...

リアルタイム位置

3D地球を読み込み中...

次回通過

高度履歴

Altitude vs Time

uPlot chart will show altitude changes over time

軌道要素

1 63124U 25039W 26034.48406349 .00023970 00000-0 87723-3 0 9999
2 63124 42.9940 206.1116 0001711 150.6197 209.4751 15.27599132 52832
Epoch: Feb 3, 2026 • Age: 10 hours

現在のステータス

高度 490.3 km
速度 7.62 km/s
衛星直下点 -29.35°S, 43.82°W
打ち上げ日 Feb 27, 2025
運用期間 0.9 years
タイプ internet

技術仕様

分類 Payload
質量 730.00 kg
乾燥質量 700.00 kg
総質量 730.00 kg
長さ 0.30 m
直径 4.10 m
スパン 29.00 m
形状 Box + pan
製造者 SPXS
バスタイプ Starlink V2M
フェーズステータス In Orbit
所有者/国 SPXS/US

大規模コンステレーション

Loading constellations...